« Back
NWS Peachtree City, Ga » Text Product » GA Regional Weather Roundup


Printer-friendly Version
Current Version              Previous Versions:   1  2  3  4  5  6  7  8  9  

Regional Weather Roundup

729
ASUS42 KFFC 060903
RWRGA
WEATHER ROUNDUP FOR GEORGIA
NATIONAL WEATHER SERVICE PEACHTREE CITY GA
400 AM EST FRI MAR 06 2015

NOTE: "FAIR" INDICATES FEW OR NO CLOUDS BELOW 12,000 FEET WITH NO
SIGNIFICANT WEATHER AND/OR OBSTRUCTIONS TO VISIBILITY.

* = USE WITH CAUTION. THE STATIONS MARKED WITH AN ASTERISK MAY NOT
REPORT WEATHER SUCH AS PRECIPITATION, FOG, OR THUNDER AND ARE NOT
QUALITY CONTROLLED BY NWS.

THE REMARK "TC" DENOTES TEMPERATURE READING IN DEGREES CELSIUS.

GAZ001>058-061000-
NORTH GEORGIA

CITY           SKY/WX    TMP DP  RH WIND       PRES   REMARKS
ATLANTA        CLOUDY    28  21  75 N9        30.32S WCI  19
ATHENS         CLOUDY    37  35  92 NE9       30.31R FOG     WCI  30
CHAMBLEE       CLOUDY    27  22  81 NW9       30.33R WCI  18
PEACHTREE CITY CLOUDY    29  21  72 N10       30.33F WCI  20
ROME           CLEAR     24  17  74 N10       30.40S WCI  14
WEST ATLANTA   CLOUDY    27  20  75 N7        30.35R WCI  19
GAINESVILLE    CLOUDY    32  28  85 N3        30.31S
CARTERSVILLE   CLOUDY    24  17  74 N5        30.39S WCI  18


CITY           SKY/WX    TMP DP  RH WIND       PRES   REMARKS
DALTON*        CLOUDY    25  21  86 N13       30.41R WCI  13
MARIETTA       CLOUDY    26  21  83 NW9       30.33S WCI  16
$$

GAZ059>098-102>109-061000-
CENTRAL GEORGIA

CITY           SKY/WX    TMP DP  RH WIND       PRES   REMARKS
AUGUSTA-BUSH   CLOUDY    41  36  82 E8        30.32R
AUGUSTA-DANIEL CLOUDY    42  33  70 NE14      30.31R
COLUMBUS       CLOUDY    31  22  69 N6        30.32F WCI  25
MACON          CLOUDY    36  29  75 N8        30.30S WCI  30
ROBINS AFB     CLOUDY    38  31  76 N9        30.29F WCI  31


CITY           SKY/WX    TMP DP  RH WIND       PRES   REMARKS
LAGRANGE*      CLOUDY    32  26  77 N7        30.34S WCI  26
SYLVANIA*      CLOUDY    41  38  90 NE10G17   30.30R
MILLEDGEVILLE* DRIZZLE   37  37 100 NW3       30.31S
$$

GAZ099>101-110>166-061000-
SOUTH GEORGIA

CITY           SKY/WX    TMP DP  RH WIND       PRES   REMARKS
SAVANNAH       CLOUDY    43  40  89 NE12      30.27R
VALDOSTA       MOCLDY    45  38  76 N15       30.24R
ALMA           CLOUDY    44  39  82 N8        30.25S
ST SIMONS      LGT RAIN  50  48  93 NE17G23   30.23R FOG
FT STEWART     CLOUDY    46  42  85 NE9       30.24R
ALBANY         CLOUDY    39  30  70 N12       30.31S WCI  32
HUNTER AFB     LGT RAIN  43  43  97 NE14G21   30.25R FOG
MOODY AFB      PTCLDY    44  38  82 N10       30.24R
BRUNSWICK      CLOUDY    52  46  82 N6        30.23S


CITY           SKY/WX    TMP DP  RH WIND       PRES   REMARKS
BAINBRIDGE*    PTCLDY    41  34  75 NW12      30.30R
MOULTRIE*      CLOUDY    41  36  81 N8        30.27R
VIDALIA*       CLOUDY    43  43 100 N7        30.27R FOG
WAYCROSS*      CLOUDY    49  45  85 N9        30.24S
DOUGLAS*       CLOUDY    45  37  76 N7        30.27S
$$



USA.gov is the U.S. government's official web portal to all federal, state and local government web resources and services.